{"data":{"norad_id":59096,"epoch":"2026-09-19T08:58:07.256640Z","epoch_age_seconds":256161,"freshness":"STALE","line1":"1 59096U 24041Y   26262.37369510  .00000469  00000+0  26560-4 0  9993","line2":"2 59096  43.0035 296.8174 0001436 270.4311  89.6376 15.27579862143891","mean_motion":15.27579862,"eccentricity":0.0001436,"inclination_deg":43.0035,"raan_deg":296.8174,"arg_perigee_deg":270.4311,"mean_anomaly_deg":89.6376,"bstar":2.656e-5,"rev_number":14389,"period_min":94.266757229613,"perigee_km":482.0642428786,"apogee_km":484.03477564406,"semimajor_km":6861.1865092613,"source":"CELESTRAK","updated_at":"2026-09-21T09:00:34.037646Z"}}